Hourly Weather Roundup
Issued by NWS Central Illinois

Home | Current Version | Previous Version | Text Only | Print | Product List | Glossary On
Versions: 1 2 3 4 5 6 7 8 9 10 11 12 13 14 15 16 17 18 19 20 21 22 23 24 25 26 27 28 29 30 31 32 33 34 35 36 37 38 39 40 41 42 43 44 45 46 47 48 49 50
000
NZUS43 KILX 280710
HWRILX

AREA WEATHER ROUNDUP
NATIONAL WEATHER SERVICE, LINCOLN IL
100 AM CST FRI NOV 28 2014


CITY           SKY/WX    TMP DP  RH WIND       PRES   REMARKS
BLOOMINGTON    MOCLDY    15  12  88 SW7       30.39F WCI   5
CHAMPAIGN      MOCLDY    15  11  83 SW7       30.39F WCI   5
DECATUR        CLOUDY    18   7  62 CALM      30.41F
FLORA          PTCLDY    20  20  98 CALM      30.45S
GALESBURG      CLOUDY    14   9  80 CALM      30.37F
JACKSONVILLE   CLOUDY    20  13  73 SE7       30.38F WCI  11
LACON          CLOUDY    15   8  73 CALM      30.41R
LAWRENCEVILLE  PTCLDY    21  19  92 CALM      30.44S
LITCHFIELD     CLOUDY    19  13  76 SE7       30.40F WCI  10
$$


CITY           SKY/WX    TMP DP  RH WIND       PRES   REMARKS
LINCOLN        CLOUDY    17   9  70 CALM      30.43S
MACOMB         CLOUDY    14   8  74 E6        30.39F WCI   5
MATTOON        MOCLDY    17   7  64 NW5       30.40F WCI  10
MT CARMEL AP   PTCLDY    23  19  86 CALM      30.44R
OLNEY-NOBLE AP MOCLDY    21  18  86 CALM      30.44S
PARIS          CLEAR     17  14  89 SW8       30.42R WCI   6
PEORIA         CLOUDY    16   8  71 CALM      30.40F
PONTIAC        MOCLDY    17  11  80 W7        30.40S WCI   7
RANTOUL        MOCLDY    19  13  77 W5        30.39S WCI  12
ROBINSON       CLEAR     20  18  90 W5        30.45S WCI  14
SPRINGFIELD    CLOUDY    18   7  62 CALM      30.42S
TAYLORVILLE    CLOUDY    18   9  68 CALM      30.43R
$$

...REGIONAL REPORTS...


CITY           SKY/WX    TMP DP  RH WIND       PRES   REMARKS
CHICAGO O`HARE MOCLDY    18  10  71 CALM      30.35F
KANKAKEE       PTCLDY   N/A N/A N/A SW3       30.38R
MOLINE         CLOUDY    14   7  73 SE5       30.36F WCI   6
MOUNT VERNON   CLOUDY    23  18  80 CALM      30.44F
PITTSFIELD     CLOUDY    21  15  77 SE5       30.38F WCI  14
QUINCY         MOCLDY    19  11  70 SE10      30.34F WCI   7
ROCKFORD       CLOUDY    13   5  70 SW5       30.39R WCI   5
$$


CITY           SKY/WX    TMP DP  RH WIND       PRES   REMARKS
BURLINGTON     MOCLDY    15   7  70 E6        30.35F WCI   6
CEDAR RAPIDS   CLOUDY    13   7  77 SE10      30.30F WCI   0
DES MOINES     CLOUDY    15   7  70 SE12      30.22F WCI   2
KIRKSVILLE     MOCLDY    20  15  81 E9        30.30F WCI   9
OTTUMWA        PTCLDY    15   6  67 SE9       30.28F WCI   3
ST LOUIS       CLOUDY    26  19  74 SE9       30.40F WCI  17
$$


CITY           SKY/WX    TMP DP  RH WIND       PRES   REMARKS
TERRE HAUTE    CLEAR     18  15  88 W3        30.42R
EVANSVILLE     CLEAR     24  20  84 CALM      30.45F
INDIANAPOLIS   CLOUDY    23  16  74 NW3       30.37S
LAFAYETTE      CLEAR     17  14  88 CALM      30.38F
MADISON        CLOUDY    13   5  70 SE5       30.33S WCI   5
MILWAUKEE      MOCLDY    14   7  73 NW3       30.35F
$$




USA.gov is the U.S. government's official web portal to all federal, state and local government web resources and services.